| time (UTC) | temp F | wind direction | speed knots | gust knots | rain 1hr in | rain 24hr in | rain mn in | humidity % | barometer mb |
| 20260906185306 | 70 | 288 | 0.0 | 0.9 | 0.00 | 0.00 | 0.00 | 79 | 1022.8 |
| 20260906185049 | 70 | 269 | 0.0 | 1.7 | 0.00 | 0.00 | 0.00 | 79 | 1023.6 |
| 20260906184804 | 70 | 358 | 0.0 | 1.7 | 0.00 | 0.00 | 0.00 | 79 | 1022.8 |
| 20260906184549 | 64 | 217 | 0.0 | 0.9 | 0.00 | 0.00 | 0.00 | 98 | 1024.2 |
| 20260906184547 | 70 | 303 | 0.9 | 1.7 | 0.00 | 0.00 | 0.00 | 79 | 1023.5 |
| 20260906184304 | 70 | 239 | 0.0 | 1.7 | 0.00 | 0.00 | 0.00 | 79 | 1022.7 |
| 20260906184049 | 70 | 269 | 0.0 | 1.7 | 0.00 | 0.00 | 0.00 | 78 | 1023.4 |
| 20260906183804 | 70 | 43 | 0.9 | 1.7 | 0.00 | 0.00 | 0.00 | 78 | 1022.7 |
| 20260906183547 | 70 | 1 | 0.9 | 1.7 | 0.00 | 0.00 | 0.00 | 78 | 1023.4 |
| 20260906183303 | 70 | 356 | 0.9 | 1.7 | 0.00 | 0.00 | 0.00 | 78 | 1022.7 |
| 20260906183051 | 70 | 331 | 0.9 | 2.6 | 0.00 | 0.00 | 0.00 | 78 | 1023.5 |
| 20260906183047 | 64 | 338 | 0.9 | 2.6 | 0.00 | 0.00 | 0.00 | 97 | 1024.1 |
| 20260906182547 | 70 | 331 | 1.7 | 2.6 | 0.00 | 0.00 | 0.00 | 78 | 1023.5 |
| 20260906182306 | 71 | 338 | 0.9 | 2.6 | 0.00 | 0.00 | 0.00 | 77 | 1022.6 |
| 20260906182048 | 71 | 269 | 1.7 | 2.6 | 0.00 | 0.00 | 0.00 | 77 | 1023.4 |
| 20260906181804 | 71 | 3 | 0.9 | 2.6 | 0.00 | 0.00 | 0.00 | 77 | 1022.6 |
| 20260906181548 | 71 | 348 | 1.7 | 3.5 | 0.00 | 0.00 | 0.00 | 77 | 1023.5 |
| 20260906181544 | 64 | 51 | 0.0 | 3.5 | 0.00 | 0.00 | 0.00 | 96 | 1024.1 |
| 20260906181305 | 71 | 12 | 0.9 | 2.6 | 0.00 | 0.00 | 0.00 | 77 | 1022.7 |
| 20260906181048 | 71 | 341 | 1.7 | 4.3 | 0.00 | 0.00 | 0.00 | 77 | 1023.4 |
| 20260906180812 | 71 | 344 | 1.7 | 4.3 | 0.00 | 0.00 | 0.00 | 76 | 1023.5 |
| 20260906180803 | 71 | 297 | 1.7 | 2.6 | 0.00 | 0.00 | 0.00 | 77 | 1022.6 |
| 20260906180304 | 71 | 37 | 1.7 | 4.3 | 0.00 | 0.00 | 0.00 | 76 | 1022.6 |
| 20260906180104 | 64 | 319 | 1.7 | 2.6 | 0.00 | 0.00 | 0.00 | 95 | 1024.1 |
| 20260906180047 | 71 | 306 | 1.7 | 4.3 | 0.00 | 0.00 | 0.00 | 76 | 1023.5 |
| 20260906175545 | 72 | 310 | 1.7 | 4.3 | 0.00 | 0.00 | 0.00 | 76 | 1023.4 |
| 20260906175306 | 72 | 321 | 0.9 | 2.6 | 0.00 | 0.00 | 0.00 | 76 | 1022.6 |
| 20260906175051 | 72 | 334 | 1.7 | 5.2 | 0.00 | 0.00 | 0.00 | 76 | 1023.4 |
| 20260906174803 | 72 | 328 | 1.7 | 7.0 | 0.00 | 0.00 | 0.00 | 75 | 1022.6 |
| 20260906174547 | 64 | 325 | 1.7 | 4.3 | 0.00 | 0.00 | 0.00 | 95 | 1024.1 |
| 20260906174304 | 72 | 10 | 0.9 | 2.6 | 0.00 | 0.00 | 0.00 | 75 | 1022.5 |
| 20260906174047 | 72 | 324 | 1.7 | 3.5 | 0.00 | 0.00 | 0.00 | 75 | 1023.3 |
| 20260906173804 | 72 | 348 | 0.9 | 4.3 | 0.00 | 0.00 | 0.00 | 75 | 1022.6 |
| 20260906173546 | 72 | 327 | 2.6 | 3.5 | 0.00 | 0.00 | 0.00 | 75 | 1023.4 |
| 20260906173313 | 72 | 31 | 1.7 | 5.2 | 0.00 | 0.00 | 0.00 | 74 | 1023.4 |
| 20260906173308 | 73 | 314 | 1.7 | 5.2 | 0.00 | 0.00 | 0.00 | 74 | 1023.3 |
| 20260906173304 | 72 | 340 | 1.7 | 2.6 | 0.00 | 0.00 | 0.00 | 75 | 1022.6 |
| 20260906173045 | 64 | 51 | 1.7 | 3.5 | 0.00 | 0.00 | 0.00 | 94 | 1024.0 |
| 20260906172804 | 72 | 345 | 1.7 | 4.3 | 0.00 | 0.00 | 0.00 | 74 | 1022.5 |
| 20260906172306 | 73 | 329 | 2.6 | 6.1 | 0.00 | 0.00 | 0.00 | 74 | 1022.6 |
| 20260906172047 | 73 | 323 | 2.6 | 5.2 | 0.00 | 0.00 | 0.00 | 74 | 1023.5 |
| 20260906171545 | 73 | 314 | 1.7 | 6.1 | 0.00 | 0.00 | 0.00 | 74 | 1023.4 |
| 20260906171543 | 64 | 298 | 1.7 | 6.1 | 0.00 | 0.00 | 0.00 | 94 | 1024.0 |
| 20260906171304 | 73 | 343 | 2.6 | 6.1 | 0.00 | 0.00 | 0.00 | 73 | 1022.5 |
| 20260906171045 | 73 | 327 | 2.6 | 6.1 | 0.00 | 0.00 | 0.00 | 73 | 1023.3 |
| 20260906170804 | 73 | 300 | 2.6 | 7.0 | 0.00 | 0.00 | 0.00 | 73 | 1022.4 |
| 20260906170545 | 73 | 237 | 2.6 | 5.2 | 0.00 | 0.00 | 0.00 | 73 | 1023.2 |
| 20260906170304 | 73 | 317 | 2.6 | 6.1 | 0.00 | 0.00 | 0.00 | 73 | 1022.4 |
| 20260906170045 | 73 | 10 | 1.7 | 5.2 | 0.00 | 0.00 | 0.00 | 73 | 1023.2 |
| 20260906170042 | 64 | 313 | 1.7 | 3.5 | 0.00 | 0.00 | 0.00 | 93 | 1023.8 |
| 20260906165544 | 73 | 331 | 2.6 | 5.2 | 0.00 | 0.00 | 0.00 | 73 | 1023.1 |
| 20260906165306 | 73 | 326 | 1.7 | 6.1 | 0.00 | 0.00 | 0.00 | 73 | 1022.3 |
| 20260906165044 | 74 | 323 | 2.6 | 5.2 | 0.00 | 0.00 | 0.00 | 73 | 1023.2 |
| 20260906164804 | 74 | 345 | 1.7 | 6.1 | 0.00 | 0.00 | 0.00 | 74 | 1022.3 |
| 20260906164547 | 64 | 296 | 2.6 | 3.5 | 0.00 | 0.00 | 0.00 | 93 | 1023.7 |
| 20260906164545 | 74 | 319 | 2.6 | 4.3 | 0.00 | 0.00 | 0.00 | 73 | 1023.2 |
| 20260906164310 | 74 | 310 | 2.6 | 6.1 | 0.00 | 0.00 | 0.00 | 74 | 1023.2 |
| 20260906164303 | 74 | 337 | 1.7 | 4.3 | 0.00 | 0.00 | 0.00 | 73 | 1022.3 |
| 20260906163804 | 74 | 348 | 2.6 | 6.1 | 0.00 | 0.00 | 0.00 | 73 | 1022.2 |
| 20260906163544 | 74 | 317 | 2.6 | 6.1 | 0.00 | 0.00 | 0.00 | 73 | 1023.1 |
| 20260906163304 | 74 | 313 | 2.6 | 7.0 | 0.00 | 0.00 | 0.00 | 73 | 1022.2 |
| 20260906163103 | 64 | 26 | 2.6 | 3.5 | 0.00 | 0.00 | 0.00 | 91 | 1023.7 |
| 20260906163044 | 74 | 35 | 3.5 | 6.1 | 0.00 | 0.00 | 0.00 | 72 | 1023.0 |
| 20260906162804 | 74 | 306 | 1.7 | 5.2 | 0.00 | 0.00 | 0.00 | 73 | 1022.3 |
| 20260906162545 | 74 | 351 | 2.6 | 5.2 | 0.00 | 0.00 | 0.00 | 72 | 1023.1 |
| 20260906162306 | 74 | 28 | 2.6 | 6.1 | 0.00 | 0.00 | 0.00 | 73 | 1022.2 |
| 20260906162044 | 74 | 320 | 2.6 | 6.1 | 0.00 | 0.00 | 0.00 | 73 | 1023.0 |
| 20260906161543 | 75 | 324 | 2.6 | 6.1 | 0.00 | 0.00 | 0.00 | 72 | 1022.9 |
| 20260906161043 | 75 | 324 | 1.7 | 5.2 | 0.00 | 0.00 | 0.00 | 74 | 1023.0 |
| 20260906160804 | 74 | 278 | 2.6 | 6.1 | 0.00 | 0.00 | 0.00 | 74 | 1022.1 |
| 20260906160544 | 74 | 314 | 1.7 | 6.1 | 0.00 | 0.00 | 0.00 | 74 | 1022.9 |
| 20260906160304 | 74 | 327 | 2.6 | 8.7 | 0.00 | 0.00 | 0.00 | 73 | 1022.2 |
| 20260906160050 | 64 | 335 | 3.5 | 8.7 | 0.00 | 0.00 | 0.00 | 93 | 1023.6 |
| 20260906160043 | 74 | 344 | 3.5 | 6.1 | 0.00 | 0.00 | 0.00 | 73 | 1023.0 |
| 20260906155804 | 75 | 340 | 2.6 | 5.2 | 0.00 | 0.00 | 0.00 | 73 | 1022.1 |
| 20260906155543 | 75 | 8 | 3.5 | 5.2 | 0.00 | 0.00 | 0.00 | 72 | 1022.9 |
| 20260906155307 | 75 | 28 | 3.5 | 5.2 | 0.00 | 0.00 | 0.00 | 72 | 1022.9 |
| 20260906154804 | 75 | 321 | 2.6 | 7.0 | 0.00 | 0.00 | 0.00 | 72 | 1022.1 |
| 20260906154546 | 64 | 18 | 2.6 | 3.5 | 0.00 | 0.00 | 0.00 | 71 | 1023.6 |
| 20260906154543 | 75 | 25 | 3.5 | 5.2 | 0.00 | 0.00 | 0.00 | 72 | 1022.9 |
| 20260906154043 | 75 | 42 | 2.6 | 5.2 | 0.00 | 0.00 | 0.00 | 72 | 1022.9 |
| 20260906153804 | 75 | 17 | 2.6 | 5.2 | 0.00 | 0.00 | 0.00 | 71 | 1022.0 |
| 20260906153543 | 76 | 334 | 2.6 | 4.3 | 0.00 | 0.00 | 0.00 | 71 | 1022.9 |
| 20260906153304 | 76 | 7 | 2.6 | 4.3 | 0.00 | 0.00 | 0.00 | 71 | 1022.2 |
| 20260906153053 | 64 | 314 | 1.7 | 3.5 | 0.00 | 0.00 | 0.00 | 91 | 1023.5 |
| 20260906153044 | 76 | 331 | 2.6 | 5.2 | 0.00 | 0.00 | 0.00 | 71 | 1023.0 |
| 20260906152811 | 76 | 350 | 1.7 | 5.2 | 0.00 | 0.00 | 0.00 | 71 | 1022.9 |
| 20260906152804 | 76 | 326 | 2.6 | 4.3 | 0.00 | 0.00 | 0.00 | 71 | 1022.1 |
| 20260906152306 | 76 | 353 | 2.6 | 7.0 | 0.00 | 0.00 | 0.00 | 71 | 1022.1 |
| 20260906152042 | 76 | 1 | 2.6 | 9.6 | 0.00 | 0.00 | 0.00 | 71 | 1023.0 |
| 20260906151804 | 76 | 307 | 2.6 | 6.1 | 0.00 | 0.00 | 0.00 | 70 | 1022.1 |
| 20260906151550 | 64 | 286 | 2.6 | 7.0 | 0.00 | 0.00 | 0.00 | 100 | 1023.7 |
| 20260906151543 | 76 | 281 | 1.7 | 9.6 | 0.00 | 0.00 | 0.00 | 70 | 1023.0 |
| 20260906151304 | 76 | 328 | 4.3 | 10.4 | 0.00 | 0.00 | 0.00 | 69 | 1022.2 |
| 20260906151042 | 76 | 17 | 2.6 | 5.2 | 0.00 | 0.00 | 0.00 | 69 | 1022.9 |
| 20260906150804 | 76 | 342 | 3.5 | 7.8 | 0.00 | 0.00 | 0.00 | 69 | 1022.1 |
| 20260906150542 | 76 | 300 | 2.6 | 5.2 | 0.00 | 0.00 | 0.00 | 69 | 1022.9 |
| 20260906150304 | 76 | 16 | 1.7 | 7.0 | 0.00 | 0.00 | 0.00 | 71 | 1022.0 |
| 20260906150045 | 64 | 51 | 0.9 | 6.1 | 0.00 | 0.00 | 0.00 | 100 | 1023.4 |
| 20260906150043 | 76 | 17 | 2.6 | 4.3 | 0.00 | 0.00 | 0.00 | 71 | 1022.7 |
| 20260906145804 | 76 | 341 | 1.7 | 2.6 | 0.00 | 0.00 | 0.00 | 71 | 1021.9 |
| 20260906145544 | 76 | 1 | 1.7 | 4.3 | 0.00 | 0.00 | 0.00 | 71 | 1022.7 |
| 20260906145042 | 76 | 321 | 2.6 | 4.3 | 0.00 | 0.00 | 0.00 | 70 | 1022.6 |
| 20260906144809 | 76 | 31 | 1.7 | 6.1 | 0.00 | 0.00 | 0.00 | 70 | 1022.6 |
| 20260906144804 | 76 | 6 | 2.6 | 6.1 | 0.00 | 0.00 | 0.00 | 70 | 1021.9 |
| 20260906144544 | 64 | 9 | 1.7 | 4.3 | 0.00 | 0.00 | 0.00 | 100 | 1023.5 |
| 20260906144304 | 75 | 7 | 2.6 | 7.0 | 0.00 | 0.00 | 0.00 | 71 | 1021.9 |
| 20260906144041 | 75 | 37 | 3.5 | 6.1 | 0.00 | 0.00 | 0.00 | 72 | 1022.7 |
| 20260906143542 | 75 | 42 | 3.5 | 5.2 | 0.00 | 0.00 | 0.00 | 72 | 1022.9 |
| 20260906143304 | 75 | 41 | 2.6 | 5.2 | 0.00 | 0.00 | 0.00 | 71 | 1022.0 |
| 20260906143047 | 64 | 313 | 1.7 | 4.3 | 0.00 | 0.00 | 0.00 | 100 | 1023.5 |
| 20260906143042 | 75 | 343 | 1.7 | 5.2 | 0.00 | 0.00 | 0.00 | 72 | 1022.9 |
| 20260906142541 | 75 | 21 | 3.5 | 10.4 | 0.00 | 0.00 | 0.00 | 72 | 1022.7 |
| 20260906142306 | 75 | 8 | 2.6 | 4.3 | 0.00 | 0.00 | 0.00 | 73 | 1021.9 |
| 20260906142257 | 74 | 39 | 2.6 | 5.2 | 0.00 | 0.00 | 0.00 | 73 | 1022.7 |
| 20260906142239 | 75 | 16 | 2.6 | 10.4 | 0.00 | 0.00 | 0.00 | 73 | 1022.7 |
| 20260906141804 | 74 | 322 | 4.3 | 10.4 | 0.00 | 0.00 | 0.00 | 73 | 1021.9 |
| 20260906141547 | 64 | 59 | 2.6 | 4.3 | 0.00 | 0.00 | 0.00 | 100 | 1023.5 |
| 20260906141304 | 75 | 43 | 2.6 | 4.3 | 0.00 | 0.00 | 0.00 | 73 | 1022.0 |
| 20260906141041 | 75 | 38 | 1.7 | 5.2 | 0.00 | 0.00 | 0.00 | 73 | 1022.7 |
| 20260906140804 | 75 | 19 | 3.5 | 7.8 | 0.00 | 0.00 | 0.00 | 73 | 1021.9 |
| 20260906140542 | 75 | 23 | 2.6 | 5.2 | 0.00 | 0.00 | 0.00 | 72 | 1022.7 |
| 20260906140304 | 75 | 41 | 2.6 | 5.2 | 0.00 | 0.00 | 0.00 | 72 | 1021.9 |
| 20260906140053 | 64 | 49 | 2.6 | 4.3 | 0.00 | 0.00 | 0.00 | 100 | 1023.4 |
| 20260906140041 | 75 | 32 | 3.5 | 6.1 | 0.00 | 0.00 | 0.00 | 72 | 1022.6 |
| 20260906135804 | 75 | 352 | 2.6 | 6.1 | 0.00 | 0.00 | 0.00 | 73 | 1021.8 |
| 20260906135541 | 75 | 351 | 4.3 | 6.1 | 0.00 | 0.00 | 0.00 | 72 | 1022.6 |
| 20260906135306 | 75 | 41 | 2.6 | 6.1 | 0.00 | 0.00 | 0.00 | 72 | 1021.9 |
| 20260906135040 | 76 | 28 | 1.7 | 5.2 | 0.00 | 0.00 | 0.00 | 72 | 1022.6 |
| 20260906134803 | 76 | 38 | 2.6 | 7.0 | 0.00 | 0.00 | 0.00 | 70 | 1021.9 |
| 20260906134542 | 64 | 44 | 1.7 | 4.3 | 0.00 | 0.00 | 0.00 | 100 | 1023.5 |
| 20260906134304 | 77 | 25 | 2.6 | 7.8 | 0.00 | 0.00 | 0.00 | 71 | 1021.9 |
| 20260906134043 | 77 | 345 | 3.5 | 7.8 | 0.00 | 0.00 | 0.00 | 69 | 1022.6 |
| 20260906133806 | 77 | 350 | 3.5 | 4.3 | 0.00 | 0.00 | 0.00 | 69 | 1022.5 |
| 20260906133304 | 77 | 339 | 0.9 | 4.3 | 0.00 | 0.00 | 0.00 | 71 | 1021.8 |
| 20260906133042 | 64 | 16 | 2.6 | 7.0 | 0.00 | 0.00 | 0.00 | 100 | 1023.4 |
| 20260906132804 | 77 | 17 | 1.7 | 7.0 | 0.00 | 0.00 | 0.00 | 71 | 1021.8 |
| 20260906132758 | 77 | 24 | 3.5 | 5.2 | 0.00 | 0.00 | 0.00 | 70 | 1022.5 |
| 20260906132527 | 78 | 1 | 2.6 | 5.2 | 0.00 | 0.00 | 0.00 | 72 | 1022.6 |
| 20260906132306 | 77 | 18 | 2.6 | 7.0 | 0.00 | 0.00 | 0.00 | 70 | 1021.8 |
| 20260906131804 | 77 | 33 | 1.7 | 7.0 | 0.00 | 0.00 | 0.00 | 71 | 1021.7 |
| 20260906131608 | 64 | 319 | 3.5 | 4.3 | 0.00 | 0.00 | 0.00 | 100 | 1023.2 |
| 20260906131540 | 77 | 331 | 2.6 | 5.2 | 0.00 | 0.00 | 0.00 | 70 | 1022.5 |
| 20260906131304 | 78 | 336 | 1.7 | 4.3 | 0.00 | 0.00 | 0.00 | 70 | 1021.6 |
| 20260906131040 | 78 | 334 | 1.7 | 5.2 | 0.00 | 0.00 | 0.00 | 71 | 1022.4 |
| 20260906130804 | 77 | 280 | 1.7 | 6.1 | 0.00 | 0.00 | 0.00 | 72 | 1021.7 |
| 20260906130540 | 77 | 41 | 2.6 | 5.2 | 0.00 | 0.00 | 0.00 | 71 | 1022.3 |
| 20260906130304 | 77 | 4 | 2.6 | 7.0 | 0.00 | 0.00 | 0.00 | 72 | 1021.6 |
| 20260906130045 | 64 | 24 | 1.7 | 3.5 | 0.00 | 0.00 | 0.00 | 100 | 1023.1 |
| 20260906130040 | 77 | 20 | 2.6 | 5.2 | 0.00 | 0.00 | 0.00 | 72 | 1022.3 |
| 20260906125803 | 77 | 341 | 2.6 | 5.2 | 0.00 | 0.00 | 0.00 | 71 | 1021.6 |
| 20260906125539 | 77 | 327 | 2.6 | 6.1 | 0.00 | 0.00 | 0.00 | 72 | 1022.2 |
| 20260906125306 | 77 | 324 | 1.7 | 7.0 | 0.00 | 0.00 | 0.00 | 72 | 1021.5 |
| 20260906125040 | 77 | 299 | 3.5 | 6.1 | 0.00 | 0.00 | 0.00 | 70 | 1022.2 |
| 20260906124803 | 77 | 335 | 1.7 | 4.3 | 0.00 | 0.00 | 0.00 | 71 | 1021.4 |
| 20260906124542 | 64 | 46 | 2.6 | 4.3 | 0.00 | 0.00 | 0.00 | 100 | 1023.0 |
| 20260906124539 | 78 | 25 | 1.7 | 5.2 | 0.00 | 0.00 | 0.00 | 70 | 1022.2 |
| 20260906124303 | 78 | 323 | 3.5 | 7.0 | 0.00 | 0.00 | 0.00 | 70 | 1021.4 |
| 20260906124039 | 78 | 313 | 2.6 | 4.3 | 0.00 | 0.00 | 0.00 | 71 | 1022.2 |
| 20260906123540 | 78 | 13 | 2.6 | 4.3 | 0.00 | 0.00 | 0.00 | 71 | 1022.2 |
| 20260906123303 | 78 | 308 | 2.6 | 6.1 | 0.00 | 0.00 | 0.00 | 70 | 1021.4 |
| 20260906123052 | 64 | 325 | 1.7 | 4.3 | 0.00 | 0.00 | 0.00 | 100 | 1023.0 |
| 20260906123039 | 78 | 337 | 2.6 | 4.3 | 0.00 | 0.00 | 0.00 | 70 | 1022.1 |
| 20260906122803 | 78 | 308 | 1.7 | 2.6 | 0.00 | 0.00 | 0.00 | 70 | 1021.3 |
| 20260906122539 | 78 | 314 | 2.6 | 4.3 | 0.00 | 0.00 | 0.00 | 69 | 1022.2 |
| 20260906122305 | 78 | 322 | 2.6 | 5.2 | 0.00 | 0.00 | 0.00 | 69 | 1021.3 |
| 20260906122038 | 78 | 1 | 1.7 | 3.5 | 0.00 | 0.00 | 0.00 | 69 | 1022.1 |
| 20260906121803 | 78 | 321 | 0.9 | 2.6 | 0.00 | 0.00 | 0.00 | 70 | 1021.4 |
| 20260906121548 | 64 | 227 | 0.9 | 2.6 | 0.00 | 0.00 | 0.00 | 100 | 1023.0 |
| 20260906121538 | 78 | 245 | 1.7 | 3.5 | 0.00 | 0.00 | 0.00 | 68 | 1022.1 |
| 20260906121302 | 78 | 151 | 0.9 | 2.6 | 0.00 | 0.00 | 0.00 | 68 | 1021.4 |
| 20260906121038 | 78 | 299 | 1.7 | 3.5 | 0.00 | 0.00 | 0.00 | 70 | 1022.1 |
| 20260906120808 | 77 | 299 | 1.7 | 3.5 | 0.00 | 0.00 | 0.00 | 69 | 1022.2 |
| 20260906120803 | 77 | 328 | 1.7 | 2.6 | 0.00 | 0.00 | 0.00 | 70 | 1021.4 |
| 20260906120303 | 77 | 297 | 1.7 | 2.6 | 0.00 | 0.00 | 0.00 | 70 | 1021.5 |
| 20260906120043 | 64 | 54 | 0.9 | 2.6 | 0.00 | 0.00 | 0.00 | 100 | 1023.0 |
| 20260906120038 | 77 | 341 | 1.7 | 2.6 | 0.00 | 0.00 | 0.00 | 71 | 1022.2 |
| 20260906115803 | 77 | 21 | 1.7 | 2.6 | 0.00 | 0.00 | 0.00 | 69 | 1021.4 |
| 20260906115539 | 77 | 168 | 1.7 | 3.5 | 0.00 | 0.00 | 0.00 | 70 | 1022.2 |
| 20260906115306 | 77 | 39 | 0.9 | 2.6 | 0.00 | 0.00 | 0.00 | 70 | 1021.4 |
| 20260906115038 | 76 | 59 | 0.9 | 4.3 | 0.00 | 0.00 | 0.00 | 71 | 1022.2 |
| 20260906114803 | 76 | 309 | 1.7 | 4.3 | 0.00 | 0.00 | 0.00 | 71 | 1021.5 |
| 20260906114545 | 64 | 0 | 0.9 | 3.5 | 0.00 | 0.00 | 0.00 | 100 | 1023.0 |
| 20260906114538 | 76 | 241 | 0.9 | 4.3 | 0.00 | 0.00 | 0.00 | 70 | 1022.2 |
| 20260906114303 | 77 | 52 | 2.6 | 4.3 | 0.00 | 0.00 | 0.00 | 70 | 1021.5 |
| 20260906114038 | 76 | 45 | 1.7 | 3.5 | 0.00 | 0.00 | 0.00 | 71 | 1022.3 |
| 20260906113803 | 76 | 293 | 2.6 | 6.1 | 0.00 | 0.00 | 0.00 | 71 | 1021.6 |
| 20260906113537 | 76 | 324 | 0.9 | 3.5 | 0.00 | 0.00 | 0.00 | 70 | 1022.3 |
| 20260906113043 | 64 | 57 | 0.9 | 3.5 | 0.00 | 0.00 | 0.00 | 100 | 1023.1 |
| 20260906113039 | 76 | 341 | 1.7 | 3.5 | 0.00 | 0.00 | 0.00 | 71 | 1022.3 |
| 20260906112537 | 76 | 314 | 1.7 | 3.5 | 0.00 | 0.00 | 0.00 | 71 | 1022.3 |
| 20260906112306 | 76 | 11 | 0.9 | 2.6 | 0.00 | 0.00 | 0.00 | 71 | 1021.5 |
| 20260906112037 | 76 | 321 | 0.9 | 3.5 | 0.00 | 0.00 | 0.00 | 71 | 1022.2 |
| 20260906111809 | 75 | 28 | 2.6 | 3.5 | 0.00 | 0.00 | 0.00 | 72 | 1022.2 |
| 20260906111805 | 76 | 351 | 1.7 | 6.1 | 0.00 | 0.00 | 0.00 | 72 | 1021.4 |
| 20260906111545 | 64 | 336 | 1.7 | 2.6 | 0.00 | 0.00 | 0.00 | 100 | 1023.1 |
| 20260906111304 | 75 | 335 | 1.7 | 2.6 | 0.00 | 0.00 | 0.00 | 72 | 1021.4 |
| 20260906111038 | 75 | 45 | 1.7 | 4.3 | 0.00 | 0.00 | 0.00 | 73 | 1022.2 |
| 20260906110802 | 75 | 304 | 0.9 | 2.6 | 0.00 | 0.00 | 0.00 | 73 | 1021.4 |
| 20260906110539 | 75 | 341 | 0.9 | 4.3 | 0.00 | 0.00 | 0.00 | 73 | 1022.2 |
| 20260906110303 | 75 | 289 | 1.7 | 4.3 | 0.00 | 0.00 | 0.00 | 73 | 1021.4 |
| 20260906110041 | 64 | 305 | 0.9 | 2.6 | 0.00 | 0.00 | 0.00 | 100 | 1023.0 |
| 20260906110036 | 74 | 1 | 1.7 | 5.2 | 0.00 | 0.00 | 0.00 | 73 | 1022.2 |
| 20260906105803 | 74 | 263 | 1.7 | 6.1 | 0.00 | 0.00 | 0.00 | 74 | 1021.4 |
| 20260906105537 | 74 | 331 | 2.6 | 5.2 | 0.00 | 0.00 | 0.00 | 75 | 1022.2 |
| 20260906105306 | 74 | 355 | 0.9 | 2.6 | 0.00 | 0.00 | 0.00 | 76 | 1021.5 |
| 20260906105036 | 74 | 72 | 0.9 | 3.5 | 0.00 | 0.00 | 0.00 | 75 | 1022.2 |
| 20260906104809 | 74 | 351 | 0.9 | 2.6 | 0.00 | 0.00 | 0.00 | 76 | 1022.1 |
| 20260906104804 | 74 | 242 | 1.7 | 2.6 | 0.00 | 0.00 | 0.00 | 76 | 1021.5 |
| 20260906104541 | 64 | 338 | 0.0 | 1.7 | 0.00 | 0.00 | 0.00 | 100 | 1023.1 |
| 20260906104303 | 73 | 153 | 0.9 | 2.6 | 0.00 | 0.00 | 0.00 | 76 | 1021.5 |
| 20260906104037 | 73 | 223 | 1.7 | 2.6 | 0.00 | 0.00 | 0.00 | 77 | 1022.2 |
| 20260906103808 | 72 | 223 | 0.9 | 3.5 | 0.00 | 0.00 | 0.00 | 77 | 1022.3 |
| 20260906103804 | 73 | 357 | 0.9 | 2.6 | 0.00 | 0.00 | 0.00 | 77 | 1021.4 |
| 20260906103303 | 72 | 4 | 0.9 | 2.6 | 0.00 | 0.00 | 0.00 | 79 | 1021.6 |
| 20260906103044 | 64 | 334 | 0.0 | 2.6 | 0.00 | 0.00 | 0.00 | 100 | 1023.1 |
| 20260906103036 | 72 | 35 | 0.9 | 3.5 | 0.00 | 0.00 | 0.00 | 80 | 1022.3 |
| 20260906102803 | 72 | 276 | 1.7 | 2.6 | 0.00 | 0.00 | 0.00 | 80 | 1021.5 |
| 20260906102536 | 72 | 337 | 1.7 | 3.5 | 0.00 | 0.00 | 0.00 | 80 | 1022.3 |
| 20260906102306 | 72 | 269 | 1.7 | 5.2 | 0.00 | 0.00 | 0.00 | 80 | 1021.5 |
| 20260906101803 | 72 | 274 | 0.9 | 1.7 | 0.00 | 0.00 | 0.00 | 82 | 1021.6 |
| 20260906101542 | 64 | 0 | 0.9 | 2.6 | 0.00 | 0.00 | 0.00 | 100 | 1023.1 |
| 20260906101537 | 71 | 223 | 0.9 | 2.6 | 0.00 | 0.00 | 0.00 | 83 | 1022.4 |
| 20260906101303 | 71 | 17 | 1.7 | 2.6 | 0.00 | 0.00 | 0.00 | 83 | 1021.6 |
| 20260906101300 | 71 | 45 | 1.7 | 2.6 | 0.00 | 0.00 | 0.00 | 83 | 1022.4 |
| 20260906100803 | 70 | 10 | 1.7 | 2.6 | 0.00 | 0.00 | 0.00 | 84 | 1021.5 |
| 20260906100536 | 70 | 42 | 0.9 | 1.7 | 0.00 | 0.00 | 0.00 | 84 | 1022.2 |
| 20260906100304 | 70 | 206 | 0.9 | 1.7 | 0.00 | 0.00 | 0.00 | 84 | 1021.5 |
| 20260906100040 | 64 | 221 | 0.9 | 1.7 | 0.00 | 0.00 | 0.00 | 100 | 1023.0 |
| 20260906100035 | 70 | 206 | 0.9 | 1.7 | 0.00 | 0.00 | 0.00 | 84 | 1022.3 |
| 20260906095803 | 70 | 133 | 0.9 | 2.6 | 0.00 | 0.00 | 0.00 | 85 | 1021.5 |
| 20260906095535 | 69 | 269 | 0.9 | 1.7 | 0.00 | 0.00 | 0.00 | 84 | 1022.3 |
| 20260906095307 | 69 | 314 | 0.0 | 1.7 | 0.00 | 0.00 | 0.00 | 84 | 1022.2 |
| 20260906095305 | 69 | 241 | 0.0 | 0.9 | 0.00 | 0.00 | 0.00 | 84 | 1021.4 |
| 20260906094807 | 69 | 341 | 1.7 | 1.7 | 0.00 | 0.00 | 0.00 | 84 | 1022.2 |
| 20260906094804 | 69 | 308 | 0.9 | 1.7 | 0.00 | 0.00 | 0.00 | 84 | 1021.4 |
| 20260906094546 | 64 | 325 | 0.9 | 1.7 | 0.00 | 0.00 | 0.00 | 100 | 1022.9 |
| 20260906094303 | 70 | 20 | 0.9 | 1.7 | 0.00 | 0.00 | 0.00 | 85 | 1021.4 |
| 20260906094034 | 69 | 28 | 0.0 | 0.9 | 0.00 | 0.00 | 0.00 | 85 | 1022.2 |
| 20260906093803 | 69 | 305 | 0.9 | 1.7 | 0.00 | 0.00 | 0.00 | 85 | 1021.3 |
| 20260906093535 | 69 | 286 | 0.9 | 1.7 | 0.00 | 0.00 | 0.00 | 85 | 1022.1 |
| 20260906093303 | 69 | 299 | 0.0 | 0.9 | 0.00 | 0.00 | 0.00 | 85 | 1021.3 |
| 20260906093052 | 64 | 265 | 0.0 | 1.7 | 0.00 | 0.00 | 0.00 | 100 | 1022.9 |
| 20260906093035 | 69 | 35 | 0.0 | 2.6 | 0.00 | 0.00 | 0.00 | 85 | 1022.1 |
| 20260906092806 | 69 | 93 | 0.9 | 2.6 | 0.00 | 0.00 | 0.00 | 86 | 1021.3 |
| 20260906092534 | 69 | 45 | 1.7 | 2.6 | 0.00 | 0.00 | 0.00 | 87 | 1021.9 |
| 20260906092305 | 68 | 165 | 0.9 | 1.7 | 0.00 | 0.00 | 0.00 | 88 | 1021.9 |
| 20260906091803 | 68 | 204 | 0.9 | 1.7 | 0.00 | 0.00 | 0.00 | 88 | 1021.2 |
| 20260906091756 | 68 | 135 | 0.9 | 1.7 | 0.00 | 0.00 | 0.00 | 89 | 1022.0 |
| 20260906091543 | 64 | 34 | 0.9 | 1.7 | 0.00 | 0.00 | 0.00 | 100 | 1022.7 |
| 20260906091303 | 68 | 165 | 0.9 | 1.7 | 0.00 | 0.00 | 0.00 | 89 | 1021.2 |
| 20260906091035 | 68 | 178 | 0.9 | 1.7 | 0.00 | 0.00 | 0.00 | 89 | 1021.9 |
| 20260906090803 | 68 | 11 | 0.9 | 2.6 | 0.00 | 0.00 | 0.00 | 90 | 1021.2 |
| 20260906090535 | 67 | 350 | 0.9 | 1.7 | 0.00 | 0.00 | 0.00 | 90 | 1021.8 |
| 20260906090302 | 67 | 125 | 0.9 | 1.7 | 0.00 | 0.00 | 0.00 | 91 | 1021.2 |
| 20260906090044 | 64 | 239 | 0.0 | 1.7 | 0.00 | 0.00 | 0.00 | 100 | 1022.8 |
| 20260906090034 | 67 | 1 | 0.9 | 1.7 | 0.00 | 0.00 | 0.00 | 91 | 1022.1 |
| 20260906085535 | 67 | 213 | 0.9 | 1.7 | 0.00 | 0.00 | 0.00 | 90 | 1022.1 |
| 20260906085033 | 67 | 213 | 0.9 | 1.7 | 0.00 | 0.00 | 0.00 | 91 | 1021.9 |
| 20260906084803 | 67 | 289 | 0.9 | 1.7 | 0.00 | 0.00 | 0.00 | 91 | 1021.1 |
| 20260906084552 | 64 | 0 | 0.0 | 1.7 | 0.00 | 0.00 | 0.00 | 100 | 1022.7 |
| 20260906084533 | 66 | 269 | 0.9 | 2.6 | 0.00 | 0.00 | 0.00 | 91 | 1021.9 |
| 20260906084302 | 66 | 344 | 0.9 | 1.7 | 0.00 | 0.00 | 0.00 | 91 | 1021.1 |
| 20260906084034 | 66 | 63 | 0.9 | 2.6 | 0.00 | 0.00 | 0.00 | 91 | 1021.9 |
| 20260906083803 | 66 | 68 | 0.9 | 2.6 | 0.00 | 0.00 | 0.00 | 92 | 1021.1 |
| 20260906083759 | 66 | 89 | 0.9 | 1.7 | 0.00 | 0.00 | 0.00 | 92 | 1021.8 |
| 20260906083303 | 66 | 57 | 0.9 | 1.7 | 0.00 | 0.00 | 0.00 | 92 | 1021.0 |
| 20260906083259 | 66 | 269 | 0.9 | 2.6 | 0.00 | 0.00 | 0.00 | 93 | 1021.8 |
| 20260906083043 | 64 | 0 | 0.9 | 1.7 | 0.00 | 0.00 | 0.00 | 100 | 1022.6 |
| 20260906082534 | 66 | 45 | 0.9 | 2.6 | 0.00 | 0.00 | 0.00 | 93 | 1021.8 |
| 20260906082305 | 66 | 60 | 1.7 | 2.6 | 0.00 | 0.00 | 0.00 | 93 | 1021.0 |
| 20260906082033 | 66 | 37 | 0.9 | 1.7 | 0.00 | 0.00 | 0.00 | 94 | 1021.7 |
| 20260906081803 | 66 | 149 | 0.0 | 1.7 | 0.00 | 0.00 | 0.00 | 94 | 1021.0 |
| 20260906081545 | 64 | 292 | 0.9 | 1.7 | 0.00 | 0.00 | 0.00 | 100 | 1022.6 |
| 20260906081534 | 66 | 20 | 0.9 | 1.7 | 0.00 | 0.00 | 0.00 | 94 | 1021.7 |
| 20260906081302 | 66 | 54 | 0.9 | 1.7 | 0.00 | 0.00 | 0.00 | 94 | 1021.0 |
| 20260906081257 | 66 | 223 | 0.9 | 1.7 | 0.00 | 0.00 | 0.00 | 94 | 1021.8 |
| 20260906080803 | 66 | 191 | 0.9 | 1.7 | 0.00 | 0.00 | 0.00 | 94 | 1020.9 |
| 20260906080533 | 66 | 51 | 0.9 | 1.7 | 0.00 | 0.00 | 0.00 | 94 | 1021.6 |
| 20260906080057 | 64 | 22 | 0.9 | 1.7 | 0.00 | 0.00 | 0.00 | 100 | 1022.4 |
| 20260906080032 | 66 | 38 | 0.9 | 1.7 | 0.00 | 0.00 | 0.00 | 94 | 1021.5 |
| 20260906075803 | 66 | 50 | 0.9 | 1.7 | 0.00 | 0.00 | 0.00 | 94 | 1020.8 |
| 20260906075759 | 66 | 135 | 0.9 | 1.7 | 0.00 | 0.00 | 0.00 | 94 | 1021.5 |
| 20260906075306 | 66 | 177 | 0.9 | 1.7 | 0.00 | 0.00 | 0.00 | 94 | 1020.7 |
| 20260906075033 | 65 | 76 | 0.9 | 1.7 | 0.00 | 0.00 | 0.00 | 94 | 1021.5 |
| 20260906074803 | 65 | 47 | 0.9 | 1.7 | 0.00 | 0.00 | 0.00 | 94 | 1020.6 |
| 20260906074552 | 64 | 137 | 0.0 | 0.9 | 0.00 | 0.00 | 0.00 | 100 | 1022.2 |
| 20260906074532 | 65 | 206 | 0.9 | 1.7 | 0.00 | 0.00 | 0.00 | 94 | 1021.4 |
| 20260906074303 | 65 | 39 | 0.9 | 1.7 | 0.00 | 0.00 | 0.00 | 94 | 1020.7 |
| 20260906074034 | 65 | 296 | 0.0 | 1.7 | 0.00 | 0.00 | 0.00 | 94 | 1021.3 |
| 20260906073803 | 65 | 6 | 0.0 | 1.7 | 0.00 | 0.00 | 0.00 | 94 | 1020.6 |
| 20260906073534 | 65 | 45 | 0.9 | 1.7 | 0.00 | 0.00 | 0.00 | 94 | 1021.3 |
| 20260906073044 | 64 | 221 | 0.9 | 1.7 | 0.00 | 0.00 | 0.00 | 100 | 1022.0 |
| 20260906073031 | 65 | 45 | 0.9 | 0.9 | 0.00 | 0.00 | 0.00 | 94 | 1021.2 |
| 20260906072803 | 65 | 243 | 0.0 | 1.7 | 0.00 | 0.00 | 0.00 | 94 | 1020.4 |
| 20260906072753 | 65 | 269 | 0.9 | 1.7 | 0.00 | 0.00 | 0.00 | 94 | 1021.1 |
| 20260906072305 | 65 | 62 | 0.9 | 1.7 | 0.00 | 0.00 | 0.00 | 94 | 1020.4 |
| 20260906072301 | 65 | 269 | 0.9 | 1.7 | 0.00 | 0.00 | 0.00 | 94 | 1021.1 |
| 20260906071803 | 65 | 336 | 0.9 | 1.7 | 0.00 | 0.00 | 0.00 | 94 | 1020.3 |
| 20260906071543 | 64 | 239 | 0.0 | 0.9 | 0.00 | 0.00 | 0.00 | 100 | 1021.7 |
| 20260906071531 | 65 | 223 | 0.9 | 1.7 | 0.00 | 0.00 | 0.00 | 94 | 1021.0 |
| 20260906071303 | 65 | 110 | 0.0 | 1.7 | 0.00 | 0.00 | 0.00 | 94 | 1020.2 |
| 20260906071030 | 65 | 269 | 0.9 | 1.7 | 0.00 | 0.00 | 0.00 | 93 | 1021.0 |
| 20260906070757 | 65 | 269 | 0.9 | 0.9 | 0.00 | 0.00 | 0.00 | 93 | 1020.9 |
| 20260906070303 | 65 | 235 | 0.9 | 1.7 | 0.00 | 0.00 | 0.00 | 93 | 1020.1 |
| 20260906070047 | 64 | 229 | 0.0 | 0.9 | 0.00 | 0.00 | 0.00 | 100 | 1021.6 |
| 20260906070032 | 65 | 197 | 0.9 | 0.9 | 0.00 | 0.00 | 0.00 | 93 | 1020.8 |
| 20260906065803 | 65 | 292 | 0.9 | 1.7 | 0.00 | 0.00 | 0.00 | 93 | 1020.0 |
| 20260906065537 | 65 | 45 | 0.0 | 1.7 | 0.00 | 0.00 | 0.00 | 93 | 1020.7 |
| 20260906065305 | 65 | 220 | 0.9 | 1.7 | 0.00 | 0.00 | 0.00 | 93 | 1019.9 |
| 20260906065031 | 65 | 269 | 0.0 | 1.7 | 0.00 | 0.00 | 0.00 | 93 | 1020.5 |
| 20260906064803 | 64 | 12 | 0.9 | 1.7 | 0.00 | 0.00 | 0.00 | 93 | 1019.7 |
| 20260906064543 | 64 | 0 | 0.9 | 0.9 | 0.00 | 0.00 | 0.00 | 100 | 1021.2 |
| 20260906064534 | 65 | 197 | 0.0 | 1.7 | 0.00 | 0.00 | 0.00 | 93 | 1020.4 |
| 20260906064528 | 65 | 269 | 0.9 | 1.7 | 0.00 | 0.00 | 0.00 | 93 | 1020.3 |
| 20260906064303 | 64 | 36 | 0.9 | 1.7 | 0.00 | 0.00 | 0.00 | 93 | 1019.6 |
| 20260906063803 | 64 | 51 | 0.9 | 1.7 | 0.00 | 0.00 | 0.00 | 93 | 1019.4 |
| 20260906063533 | 65 | 72 | 0.9 | 1.7 | 0.00 | 0.00 | 0.00 | 93 | 1020.2 |
| 20260906063303 | 64 | 28 | 0.0 | 1.7 | 0.00 | 0.00 | 0.00 | 93 | 1019.4 |
| 20260906063044 | 64 | 0 | 0.0 | 0.9 | 0.00 | 0.00 | 0.00 | 100 | 1020.9 |
| 20260906063030 | 64 | 45 | 0.9 | 1.7 | 0.00 | 0.00 | 0.00 | 93 | 1020.1 |
| 20260906062804 | 64 | 78 | 0.9 | 1.7 | 0.00 | 0.00 | 0.00 | 93 | 1019.2 |
| 20260906062531 | 64 | 45 | 0.9 | 1.7 | 0.00 | 0.00 | 0.00 | 93 | 1020.0 |
| 20260906062306 | 64 | 87 | 0.9 | 1.7 | 0.00 | 0.00 | 0.00 | 93 | 1019.1 |
| 20260906062030 | 64 | 269 | 0.9 | 1.7 | 0.00 | 0.00 | 0.00 | 92 | 1019.9 |
| 20260906061550 | 64 | 0 | 0.9 | 1.7 | 0.00 | 0.00 | 0.00 | 100 | 1020.5 |
| 20260906061534 | 64 | 135 | 0.9 | 1.7 | 0.00 | 0.00 | 0.00 | 92 | 1019.7 |
| 20260906061302 | 64 | 116 | 0.9 | 1.7 | 0.00 | 0.00 | 0.00 | 92 | 1019.0 |
| 20260906061030 | 64 | 45 | 0.9 | 1.7 | 0.00 | 0.00 | 0.00 | 92 | 1019.7 |
| 20260906060803 | 64 | 82 | 0.9 | 1.7 | 0.00 | 0.00 | 0.00 | 92 | 1018.9 |
| 20260906060531 | 64 | 89 | 0.0 | 0.9 | 0.00 | 0.00 | 0.00 | 91 | 1019.7 |
| 20260906060057 | 64 | 153 | 0.0 | 0.9 | 0.00 | 0.00 | 0.00 | 100 | 1020.4 |
| 20260906060030 | 64 | 178 | 0.0 | 0.9 | 0.00 | 0.00 | 0.00 | 91 | 1019.6 |
| 20260906055803 | 64 | 158 | 0.0 | 0.9 | 0.00 | 0.00 | 0.00 | 91 | 1018.9 |
| 20260906055531 | 65 | 178 | 0.0 | 0.9 | 0.00 | 0.00 | 0.00 | 91 | 1019.5 |
| 20260906055306 | 64 | 112 | 0.0 | 0.9 | 0.00 | 0.00 | 0.00 | 90 | 1018.8 |
| 20260906055029 | 65 | 45 | 0.0 | 0.9 | 0.00 | 0.00 | 0.00 | 90 | 1019.6 |
| 20260906054803 | 65 | 301 | 0.0 | 0.9 | 0.00 | 0.00 | 0.00 | 90 | 1018.7 |
| 20260906054547 | 64 | 0 | 0.0 | 0.0 | 0.00 | 0.00 | 0.00 | 100 | 1020.0 |
| 20260906054531 | 65 | 197 | 0.0 | 1.7 | 0.00 | 0.00 | 0.00 | 90 | 1019.4 |
| 20260906054029 | 65 | 314 | 0.0 | 1.7 | 0.00 | 0.00 | 0.00 | 90 | 1019.4 |
| 20260906053803 | 65 | 301 | 0.0 | 1.7 | 0.00 | 0.00 | 0.00 | 90 | 1018.5 |
| 20260906053532 | 65 | 45 | 0.0 | 1.7 | 0.00 | 0.00 | 0.00 | 90 | 1019.2 |
| 20260906053303 | 65 | 23 | 0.9 | 2.6 | 0.00 | 0.00 | 0.00 | 90 | 1018.5 |
| 20260906053048 | 65 | 309 | 0.0 | 1.7 | 0.00 | 0.00 | 0.00 | 100 | 1020.0 |
| 20260906053029 | 65 | 290 | 0.9 | 1.7 | 0.00 | 0.00 | 0.00 | 90 | 1019.2 |
| 20260906052531 | 65 | 223 | 0.9 | 1.7 | 0.00 | 0.00 | 0.00 | 89 | 1019.2 |
| 20260906052305 | 65 | 2 | 0.9 | 2.6 | 0.00 | 0.00 | 0.00 | 89 | 1018.4 |
| 20260906052030 | 65 | 334 | 0.9 | 2.6 | 0.00 | 0.00 | 0.00 | 89 | 1019.3 |
| 20260906051803 | 65 | 285 | 0.9 | 2.6 | 0.00 | 0.00 | 0.00 | 89 | 1018.3 |
| 20260906051754 | 66 | 331 | 0.9 | 2.6 | 0.00 | 0.00 | 0.00 | 88 | 1019.0 |
| 20260906051545 | 85 | 26 | 0.9 | 2.6 | 0.00 | 0.00 | 0.00 | 100 | 1019.7 |
| 20260906051304 | 66 | 309 | 0.9 | 2.6 | 0.00 | 0.00 | 0.00 | 88 | 1018.1 |
| 20260906051029 | 66 | 1 | 0.9 | 4.3 | 0.00 | 0.00 | 0.00 | 88 | 1018.8 |
| 20260906050530 | 66 | 310 | 1.7 | 4.3 | 0.00 | 0.00 | 0.00 | 87 | 1018.6 |
| 20260906050303 | 67 | 327 | 1.7 | 4.3 | 0.00 | 0.00 | 0.00 | 87 | 1017.7 |
| 20260906050044 | 85 | 9 | 1.7 | 2.6 | 0.00 | 0.00 | 0.00 | 100 | 1019.3 |
| 20260906050029 | 67 | 1 | 1.7 | 4.3 | 0.00 | 0.00 | 0.00 | 86 | 1018.6 |
| 20260906045531 | 67 | 11 | 1.7 | 4.3 | 0.00 | 0.00 | 0.00 | 85 | 1018.6 |
| 20260906045306 | 67 | 349 | 1.7 | 5.2 | 0.00 | 0.00 | 0.00 | 84 | 1017.6 |
| 20260906045028 | 68 | 306 | 1.7 | 2.6 | 0.00 | 0.00 | 0.00 | 83 | 1018.6 |
| 20260906044803 | 68 | 325 | 0.9 | 2.6 | 0.00 | 0.00 | 0.00 | 82 | 1017.4 |
| 20260906044541 | 85 | 298 | 0.0 | 1.7 | 0.00 | 0.00 | 0.00 | 100 | 1019.0 |
| 20260906044028 | 69 | 16 | 0.9 | 1.7 | 0.00 | 0.00 | 0.00 | 80 | 1018.2 |
| 20260906043529 | 69 | 269 | 0.0 | 1.7 | 0.00 | 0.00 | 0.00 | 78 | 1018.2 |
| 20260906043303 | 69 | 249 | 0.9 | 1.7 | 0.00 | 0.00 | 0.00 | 78 | 1017.2 |
| 20260906043046 | 85 | 265 | 0.0 | 0.9 | 0.00 | 0.00 | 0.00 | 96 | 1018.8 |
| 20260906043028 | 69 | 269 | 0.0 | 0.9 | 0.00 | 0.00 | 0.00 | 77 | 1018.2 |
| 20260906042803 | 69 | 244 | 0.0 | 0.9 | 0.00 | 0.00 | 0.00 | 77 | 1017.0 |
| 20260906042530 | 69 | 223 | 0.9 | 1.7 | 0.00 | 0.00 | 0.00 | 77 | 1018.1 |
| 20260906042306 | 69 | 38 | 0.0 | 1.7 | 0.00 | 0.00 | 0.00 | 76 | 1016.9 |
| 20260906042029 | 69 | 1 | 0.0 | 1.7 | 0.00 | 0.00 | 0.00 | 76 | 1018.1 |
| 20260906041803 | 69 | 51 | 0.9 | 1.7 | 0.00 | 0.00 | 0.00 | 76 | 1017.0 |
| 20260906041547 | 85 | 61 | 0.0 | 0.9 | 0.00 | 0.00 | 0.00 | 95 | 1018.6 |
| 20260906041532 | 69 | 45 | 0.0 | 0.9 | 0.00 | 0.00 | 0.00 | 76 | 1018.1 |
| 20260906041303 | 69 | 68 | 0.0 | 1.7 | 0.00 | 0.00 | 0.00 | 76 | 1017.0 |
| 20260906041028 | 69 | 314 | 0.0 | 0.9 | 0.00 | 0.00 | 0.00 | 76 | 1018.0 |
| 20260906040803 | 69 | 76 | 0.9 | 0.9 | 0.00 | 0.00 | 0.00 | 76 | 1017.0 |
| 20260906040528 | 69 | 135 | 0.0 | 0.9 | 0.00 | 0.00 | 0.00 | 76 | 1018.2 |
| 20260906040303 | 69 | 153 | 0.9 | 1.7 | 0.00 | 0.00 | 0.00 | 76 | 1017.1 |
| 20260906040048 | 85 | 0 | 0.0 | 0.9 | 0.00 | 0.00 | 0.00 | 95 | 1018.7 |
| 20260906040028 | 69 | 178 | 0.9 | 1.7 | 0.00 | 0.00 | 0.00 | 76 | 1018.1 |
| 20260906035804 | 69 | 149 | 0.0 | 0.9 | 0.00 | 0.00 | 0.00 | 76 | 1017.0 |
| 20260906035529 | 69 | 89 | 0.9 | 1.7 | 0.00 | 0.00 | 0.00 | 76 | 1018.1 |
| 20260906035258 | 69 | 152 | 0.0 | 1.7 | 0.00 | 0.00 | 0.00 | 77 | 1018.2 |
| 20260906034803 | 69 | 136 | 0.9 | 1.7 | 0.00 | 0.00 | 0.00 | 77 | 1017.2 |
| 20260906034548 | 85 | 162 | 0.9 | 0.9 | 0.00 | 0.00 | 0.00 | 96 | 1018.8 |
| 20260906034528 | 69 | 165 | 0.9 | 0.9 | 0.00 | 0.00 | 0.00 | 77 | 1018.2 |
| 20260906034028 | 69 | 178 | 0.0 | 0.9 | 0.00 | 0.00 | 0.00 | 77 | 1018.3 |
| 20260906033803 | 69 | 152 | 0.0 | 0.9 | 0.00 | 0.00 | 0.00 | 77 | 1017.3 |
| 20260906033528 | 69 | 161 | 0.0 | 0.9 | 0.00 | 0.00 | 0.00 | 77 | 1018.4 |
| 20260906033303 | 69 | 201 | 0.0 | 0.9 | 0.00 | 0.00 | 0.00 | 77 | 1017.4 |
| 20260906033045 | 85 | 0 | 0.0 | 1.7 | 0.00 | 0.00 | 0.00 | 97 | 1019.1 |
| 20260906033027 | 69 | 178 | 0.0 | 1.7 | 0.00 | 0.00 | 0.00 | 77 | 1018.4 |
| 20260906032803 | 69 | 130 | 0.0 | 0.9 | 0.00 | 0.00 | 0.00 | 77 | 1017.5 |
| 20260906032529 | 69 | 223 | 0.0 | 1.7 | 0.00 | 0.00 | 0.00 | 77 | 1018.5 |
| 20260906032306 | 69 | 113 | 0.9 | 1.7 | 0.00 | 0.00 | 0.00 | 77 | 1017.5 |
| 20260906032026 | 69 | 135 | 0.0 | 1.7 | 0.00 | 0.00 | 0.00 | 77 | 1018.5 |
| 20260906031804 | 69 | 200 | 0.0 | 1.7 | 0.00 | 0.00 | 0.00 | 77 | 1017.9 |
| 20260906031543 | 85 | 221 | 0.0 | 0.9 | 0.00 | 0.00 | 0.00 | 96 | 1019.5 |
| 20260906031529 | 70 | 223 | 0.9 | 1.7 | 0.00 | 0.00 | 0.00 | 77 | 1018.8 |
| 20260906031027 | 70 | 45 | 0.9 | 0.9 | 0.00 | 0.00 | 0.00 | 77 | 1018.6 |
| 20260906030803 | 70 | 49 | 0.0 | 1.7 | 0.00 | 0.00 | 0.00 | 76 | 1017.6 |
| 20260906030528 | 70 | 269 | 0.0 | 1.7 | 0.00 | 0.00 | 0.00 | 76 | 1018.6 |
| 20260906030303 | 70 | 135 | 0.9 | 1.7 | 0.00 | 0.00 | 0.00 | 76 | 1017.7 |
| 20260906030053 | 85 | 137 | 0.9 | 0.9 | 0.00 | 0.00 | 0.00 | 95 | 1019.1 |
| 20260906030026 | 70 | 117 | 0.9 | 1.7 | 0.00 | 0.00 | 0.00 | 76 | 1018.5 |
| 20260906030011 | 71 | 178 | 0.0 | 1.7 | 0.00 | 0.00 | 0.00 | 75 | 1018.5 |
| 20260906025306 | 71 | 155 | 0.0 | 1.7 | 0.00 | 0.00 | 0.00 | 75 | 1017.6 |
| 20260906025027 | 71 | 45 | 0.9 | 1.7 | 0.00 | 0.00 | 0.00 | 74 | 1018.5 |
| 20260906024803 | 71 | 56 | 0.9 | 1.7 | 0.00 | 0.00 | 0.00 | 74 | 1017.4 |
| 20260906024547 | 85 | 57 | 0.9 | 1.7 | 0.00 | 0.00 | 0.00 | 93 | 1019.0 |
| 20260906024528 | 71 | 45 | 0.9 | 1.7 | 0.00 | 0.00 | 0.00 | 73 | 1018.4 |
| 20260906024026 | 71 | 63 | 0.9 | 1.7 | 0.00 | 0.00 | 0.00 | 73 | 1018.5 |
| 20260906023527 | 71 | 45 | 0.0 | 1.7 | 0.00 | 0.00 | 0.00 | 72 | 1018.6 |
| 20260906023303 | 71 | 215 | 0.0 | 0.9 | 0.00 | 0.00 | 0.00 | 72 | 1017.7 |
| 20260906023046 | 85 | 0 | 0.0 | 0.9 | 0.00 | 0.00 | 0.00 | 92 | 1019.1 |
| 20260906023026 | 71 | 314 | 0.0 | 1.7 | 0.00 | 0.00 | 0.00 | 72 | 1018.5 |
| 20260906022803 | 72 | 118 | 0.9 | 1.7 | 0.00 | 0.00 | 0.00 | 72 | 1017.6 |
| 20260906022527 | 72 | 56 | 0.9 | 0.9 | 0.00 | 0.00 | 0.00 | 72 | 1018.6 |
| 20260906022306 | 72 | 154 | 0.0 | 0.9 | 0.00 | 0.00 | 0.00 | 72 | 1017.8 |
| 20260906022246 | 72 | 178 | 0.0 | 0.9 | 0.00 | 0.00 | 0.00 | 72 | 1018.6 |
| 20260906021804 | 72 | 171 | 0.0 | 0.9 | 0.00 | 0.00 | 0.00 | 72 | 1017.6 |
| 20260906021557 | 85 | 0 | 0.0 | 0.9 | 0.00 | 0.00 | 0.00 | 91 | 1019.2 |
| 20260906021526 | 72 | 178 | 0.0 | 0.9 | 0.00 | 0.00 | 0.00 | 71 | 1018.6 |
| 20260906021304 | 72 | 196 | 0.9 | 0.9 | 0.00 | 0.00 | 0.00 | 71 | 1017.8 |
| 20260906021025 | 72 | 241 | 0.0 | 0.9 | 0.00 | 0.00 | 0.00 | 71 | 1018.8 |
| 20260906020803 | 72 | 217 | 0.0 | 0.9 | 0.00 | 0.00 | 0.00 | 70 | 1017.7 |
| 20260906020756 | 72 | 296 | 0.0 | 2.6 | 0.00 | 0.00 | 0.00 | 71 | 1018.5 |
| 20260906020047 | 85 | 0 | 0.9 | 1.7 | 0.00 | 0.00 | 0.00 | 90 | 1019.3 |
| 20260906020025 | 72 | 223 | 0.9 | 2.6 | 0.00 | 0.00 | 0.00 | 70 | 1018.6 |
| 20260906015803 | 72 | 113 | 0.0 | 1.7 | 0.00 | 0.00 | 0.00 | 70 | 1017.8 |
| 20260906015528 | 72 | 178 | 0.0 | 1.7 | 0.00 | 0.00 | 0.00 | 70 | 1018.7 |
| 20260906015306 | 72 | 149 | 0.0 | 1.7 | 0.00 | 0.00 | 0.00 | 70 | 1018.0 |
| 20260906015025 | 72 | 234 | 0.9 | 1.7 | 0.00 | 0.00 | 0.00 | 70 | 1018.9 |
| 20260906014804 | 72 | 243 | 0.9 | 1.7 | 0.00 | 0.00 | 0.00 | 70 | 1018.0 |
| 20260906014547 | 85 | 178 | 0.0 | 0.9 | 0.00 | 0.00 | 0.00 | 90 | 1019.5 |
| 20260906014527 | 72 | 157 | 0.0 | 1.7 | 0.00 | 0.00 | 0.00 | 70 | 1018.8 |
| 20260906014303 | 72 | 207 | 0.0 | 1.7 | 0.00 | 0.00 | 0.00 | 70 | 1017.9 |
| 20260906014025 | 72 | 178 | 0.9 | 1.7 | 0.00 | 0.00 | 0.00 | 70 | 1018.8 |
| 20260906013803 | 72 | 123 | 0.0 | 0.9 | 0.00 | 0.00 | 0.00 | 70 | 1017.9 |
| 20260906013525 | 72 | 269 | 0.0 | 0.9 | 0.00 | 0.00 | 0.00 | 70 | 1018.8 |
| 20260906013304 | 72 | 110 | 0.0 | 0.9 | 0.00 | 0.00 | 0.00 | 70 | 1018.0 |
| 20260906013042 | 85 | 0 | 0.0 | 0.9 | 0.00 | 0.00 | 0.00 | 90 | 1019.5 |
| 20260906013026 | 72 | 178 | 0.0 | 0.9 | 0.00 | 0.00 | 0.00 | 71 | 1018.8 |
| 20260906012803 | 72 | 150 | 0.9 | 0.9 | 0.00 | 0.00 | 0.00 | 71 | 1018.0 |
| 20260906012525 | 71 | 135 | 0.0 | 0.9 | 0.00 | 0.00 | 0.00 | 71 | 1018.9 |
| 20260906012306 | 71 | 180 | 0.0 | 0.9 | 0.00 | 0.00 | 0.00 | 72 | 1018.1 |
| 20260906012250 | 71 | 223 | 0.0 | 1.7 | 0.00 | 0.00 | 0.00 | 72 | 1018.9 |
| 20260906011803 | 71 | 216 | 0.0 | 0.9 | 0.00 | 0.00 | 0.00 | 72 | 1018.2 |
| 20260906011546 | 85 | 221 | 0.0 | 1.7 | 0.00 | 0.00 | 0.00 | 100 | 1019.7 |
| 20260906011523 | 71 | 314 | 0.0 | 1.7 | 0.00 | 0.00 | 0.00 | 73 | 1019.0 |
| 20260906011304 | 71 | 168 | 0.9 | 1.7 | 0.00 | 0.00 | 0.00 | 73 | 1018.2 |
| 20260906011024 | 71 | 135 | 0.9 | 1.7 | 0.00 | 0.00 | 0.00 | 73 | 1019.0 |
| 20260906010804 | 72 | 163 | 0.0 | 0.9 | 0.00 | 0.00 | 0.00 | 73 | 1018.3 |
| 20260906010749 | 72 | 197 | 0.0 | 0.9 | 0.00 | 0.00 | 0.00 | 73 | 1019.0 |
| 20260906010303 | 72 | 201 | 0.0 | 0.9 | 0.00 | 0.00 | 0.00 | 73 | 1018.2 |
| 20260906010250 | 72 | 45 | 0.0 | 0.9 | 0.00 | 0.00 | 0.00 | 74 | 1019.0 |
| 20260906010047 | 85 | 0 | 0.0 | 0.9 | 0.00 | 0.00 | 0.00 | 100 | 1019.7 |
| 20260906005750 | 72 | 241 | 0.0 | 1.7 | 0.00 | 0.00 | 0.00 | 74 | 1018.9 |
| 20260906005306 | 72 | 146 | 0.0 | 0.9 | 0.00 | 0.00 | 0.00 | 74 | 1018.1 |
| 20260906005024 | 72 | 223 | 0.0 | 1.7 | 0.00 | 0.00 | 0.00 | 74 | 1018.9 |
| 20260906004804 | 72 | 227 | 0.9 | 1.7 | 0.00 | 0.00 | 0.00 | 74 | 1018.1 |
| 20260906004544 | 85 | 0 | 0.0 | 2.6 | 0.00 | 0.00 | 0.00 | 100 | 1019.6 |
| 20260906004525 | 72 | 45 | 0.9 | 2.6 | 0.00 | 0.00 | 0.00 | 72 | 1018.9 |
| 20260906004303 | 72 | 224 | 0.9 | 1.7 | 0.00 | 0.00 | 0.00 | 72 | 1018.0 |
| 20260906004023 | 72 | 223 | 0.9 | 2.6 | 0.00 | 0.00 | 0.00 | 72 | 1018.8 |
| 20260906003804 | 72 | 128 | 0.9 | 2.6 | 0.00 | 0.00 | 0.00 | 72 | 1018.0 |
| 20260906003525 | 72 | 135 | 0.9 | 2.6 | 0.00 | 0.00 | 0.00 | 73 | 1018.7 |
| 20260906003303 | 72 | 127 | 1.7 | 2.6 | 0.00 | 0.00 | 0.00 | 73 | 1017.9 |
| 20260906003045 | 85 | 68 | 0.0 | 0.9 | 0.00 | 0.00 | 0.00 | 100 | 1019.5 |
| 20260906003023 | 72 | 45 | 0.9 | 2.6 | 0.00 | 0.00 | 0.00 | 74 | 1018.8 |
| 20260906002803 | 72 | 128 | 0.9 | 2.6 | 0.00 | 0.00 | 0.00 | 74 | 1017.9 |
| 20260906002525 | 71 | 89 | 0.9 | 2.6 | 0.00 | 0.00 | 0.00 | 74 | 1018.8 |
| 20260906002306 | 71 | 131 | 0.9 | 2.6 | 0.00 | 0.00 | 0.00 | 74 | 1018.0 |
| 20260906002024 | 71 | 72 | 0.9 | 2.6 | 0.00 | 0.00 | 0.00 | 75 | 1018.9 |
| 20260906001803 | 71 | 117 | 0.9 | 2.6 | 0.00 | 0.00 | 0.00 | 76 | 1018.1 |
| 20260906001543 | 85 | 74 | 0.9 | 2.6 | 0.00 | 0.00 | 0.00 | 100 | 1019.7 |
| 20260906001525 | 72 | 45 | 0.9 | 2.6 | 0.00 | 0.00 | 0.00 | 76 | 1019.0 |
| 20260906001304 | 72 | 65 | 1.7 | 2.6 | 0.00 | 0.00 | 0.00 | 76 | 1018.2 |
| 20260906001246 | 72 | 66 | 1.7 | 2.6 | 0.00 | 0.00 | 0.00 | 76 | 1019.0 |
| 20260906000803 | 72 | 53 | 0.9 | 1.7 | 0.00 | 0.00 | 0.00 | 74 | 1018.3 |
| 20260906000524 | 72 | 51 | 0.9 | 1.7 | 0.00 | 0.00 | 0.00 | 74 | 1019.1 |
| 20260906000304 | 72 | 63 | 0.9 | 1.7 | 0.00 | 0.00 | 0.00 | 73 | 1018.2 |
| 20260906000046 | 85 | 9 | 0.9 | 1.7 | 0.00 | 0.00 | 0.00 | 100 | 1019.8 |
| 20260906000022 | 73 | 68 | 0.9 | 1.7 | 0.00 | 0.00 | 0.00 | 73 | 1019.0 |
| 20260905235804 | 73 | 78 | 0.9 | 1.7 | 0.00 | 0.00 | 0.00 | 74 | 1018.3 |
| 20260905235526 | 73 | 269 | 0.0 | 1.7 | 0.00 | 0.00 | 0.00 | 75 | 1019.1 |
| 20260905235243 | 73 | 1 | 0.9 | 2.6 | 0.00 | 0.00 | 0.00 | 75 | 1019.2 |
| 20260905234803 | 73 | 104 | 0.0 | 1.7 | 0.00 | 0.00 | 0.00 | 74 | 1018.5 |
| 20260905234545 | 85 | 51 | 0.0 | 1.7 | 0.00 | 0.00 | 0.00 | 100 | 1020.0 |
| 20260905234523 | 74 | 56 | 0.9 | 2.6 | 0.00 | 0.00 | 0.00 | 74 | 1019.4 |
| 20260905234304 | 74 | 75 | 0.9 | 2.6 | 0.00 | 0.00 | 0.00 | 73 | 1018.6 |
| 20260905234021 | 74 | 63 | 0.9 | 1.7 | 0.00 | 0.00 | 0.00 | 71 | 1019.4 |
| 20260905233803 | 74 | 61 | 0.9 | 1.7 | 0.00 | 0.00 | 0.00 | 71 | 1018.6 |
| 20260905233524 | 74 | 35 | 0.0 | 0.9 | 0.00 | 0.00 | 0.00 | 71 | 1019.3 |
| 20260905233303 | 74 | 235 | 0.0 | 0.9 | 0.00 | 0.00 | 0.00 | 71 | 1018.7 |
| 20260905233103 | 85 | 0 | 0.0 | 0.9 | 0.00 | 0.00 | 0.00 | 100 | 1020.1 |
| 20260905233021 | 74 | 45 | 0.0 | 1.7 | 0.00 | 0.00 | 0.00 | 71 | 1019.4 |
| 20260905233009 | 74 | 1 | 0.9 | 2.6 | 0.00 | 0.00 | 0.00 | 71 | 1019.4 |
| 20260905232803 | 74 | 143 | 0.9 | 1.7 | 0.00 | 0.00 | 0.00 | 71 | 1018.6 |
| 20260905232510 | 74 | 72 | 0.9 | 2.6 | 0.00 | 0.00 | 0.00 | 70 | 1019.2 |
| 20260905232306 | 74 | 152 | 0.9 | 1.7 | 0.00 | 0.00 | 0.00 | 70 | 1018.4 |
| 20260905231804 | 74 | 71 | 0.9 | 1.7 | 0.00 | 0.00 | 0.00 | 70 | 1018.5 |
| 20260905231551 | 85 | 51 | 0.0 | 0.9 | 0.00 | 0.00 | 0.00 | 100 | 1020.0 |
| 20260905231522 | 74 | 35 | 0.9 | 1.7 | 0.00 | 0.00 | 0.00 | 71 | 1019.3 |
| 20260905231303 | 74 | 39 | 0.0 | 1.7 | 0.00 | 0.00 | 0.00 | 71 | 1018.6 |
| 20260905231022 | 74 | 45 | 0.0 | 2.6 | 0.00 | 0.00 | 0.00 | 71 | 1019.4 |
| 20260905230804 | 74 | 150 | 0.0 | 2.6 | 0.00 | 0.00 | 0.00 | 71 | 1018.7 |
| 20260905230523 | 74 | 89 | 0.9 | 2.6 | 0.00 | 0.00 | 0.00 | 71 | 1019.4 |
| 20260905230303 | 74 | 107 | 0.9 | 2.6 | 0.00 | 0.00 | 0.00 | 73 | 1018.6 |
| 20260905230048 | 85 | 137 | 0.0 | 0.9 | 0.00 | 0.00 | 0.00 | 100 | 1020.1 |
| 20260905230021 | 74 | 152 | 0.9 | 1.7 | 0.00 | 0.00 | 0.00 | 73 | 1019.4 |
| 20260905225803 | 75 | 225 | 0.9 | 1.7 | 0.00 | 0.00 | 0.00 | 72 | 1018.6 |
| 20260905225522 | 75 | 314 | 0.0 | 0.9 | 0.00 | 0.00 | 0.00 | 72 | 1019.4 |
| 20260905225305 | 75 | 133 | 0.0 | 0.9 | 0.00 | 0.00 | 0.00 | 71 | 1018.6 |
| 20260905225247 | 75 | 135 | 0.0 | 2.6 | 0.00 | 0.00 | 0.00 | 71 | 1019.4 |
| 20260905224803 | 75 | 148 | 0.9 | 1.7 | 0.00 | 0.00 | 0.00 | 72 | 1018.5 |
| 20260905224605 | 85 | 0 | 0.0 | 1.7 | 0.00 | 0.00 | 0.00 | 100 | 1020.0 |
| 20260905224522 | 75 | 89 | 0.9 | 2.6 | 0.00 | 0.00 | 0.00 | 72 | 1019.3 |
| 20260905224304 | 75 | 125 | 0.9 | 2.6 | 0.00 | 0.00 | 0.00 | 72 | 1018.4 |
| 20260905224246 | 74 | 152 | 0.9 | 1.7 | 0.00 | 0.00 | 0.00 | 72 | 1019.3 |
| 20260905223803 | 74 | 99 | 0.9 | 2.6 | 0.00 | 0.00 | 0.00 | 73 | 1018.4 |
| 20260905223522 | 74 | 124 | 0.9 | 1.7 | 0.00 | 0.00 | 0.00 | 73 | 1019.2 |
| 20260905223303 | 74 | 131 | 0.9 | 0.9 | 0.00 | 0.00 | 0.00 | 73 | 1018.5 |
| 20260905223245 | 74 | 135 | 0.0 | 1.7 | 0.00 | 0.00 | 0.00 | 74 | 1019.3 |
| 20260905223043 | 85 | 162 | 0.0 | 0.9 | 0.00 | 0.00 | 0.00 | 100 | 1020.0 |
| 20260905222803 | 75 | 125 | 0.0 | 0.9 | 0.00 | 0.00 | 0.00 | 74 | 1018.5 |
| 20260905222522 | 75 | 135 | 0.9 | 1.7 | 0.00 | 0.00 | 0.00 | 74 | 1019.2 |
| 20260905222306 | 75 | 149 | 0.9 | 1.7 | 0.00 | 0.00 | 0.00 | 74 | 1018.5 |
| 20260905222245 | 75 | 135 | 0.9 | 1.7 | 0.00 | 0.00 | 0.00 | 74 | 1019.3 |
| 20260905221543 | 85 | 51 | 0.9 | 1.7 | 0.00 | 0.00 | 0.00 | 100 | 1020.0 |
| 20260905221521 | 75 | 89 | 0.9 | 1.7 | 0.00 | 0.00 | 0.00 | 74 | 1019.3 |
| 20260905221303 | 74 | 163 | 0.9 | 1.7 | 0.00 | 0.00 | 0.00 | 74 | 1018.5 |
| 20260905221245 | 75 | 89 | 0.9 | 1.7 | 0.00 | 0.00 | 0.00 | 75 | 1019.3 |
| 20260905220804 | 75 | 119 | 0.9 | 1.7 | 0.00 | 0.00 | 0.00 | 75 | 1018.5 |
| 20260905220748 | 75 | 206 | 0.9 | 1.7 | 0.00 | 0.00 | 0.00 | 74 | 1019.3 |
| 20260905220302 | 75 | 161 | 0.9 | 1.7 | 0.00 | 0.00 | 0.00 | 75 | 1018.6 |
| 20260905220049 | 85 | 221 | 0.9 | 0.9 | 0.00 | 0.00 | 0.00 | 100 | 1020.1 |
| 20260905220020 | 75 | 178 | 0.9 | 1.7 | 0.00 | 0.00 | 0.00 | 76 | 1019.4 |
| 20260905215803 | 75 | 173 | 0.9 | 0.9 | 0.00 | 0.00 | 0.00 | 75 | 1018.7 |
| 20260905215523 | 75 | 178 | 0.0 | 0.9 | 0.00 | 0.00 | 0.00 | 76 | 1019.5 |
| 20260905215306 | 75 | 53 | 0.9 | 1.7 | 0.00 | 0.00 | 0.00 | 74 | 1018.7 |
| 20260905215244 | 75 | 45 | 0.0 | 0.9 | 0.00 | 0.00 | 0.00 | 74 | 1019.5 |
| 20260905214803 | 75 | 241 | 0.0 | 0.9 | 0.00 | 0.00 | 0.00 | 74 | 1018.7 |
| 20260905214544 | 85 | 0 | 0.0 | 1.7 | 0.00 | 0.00 | 0.00 | 100 | 1020.2 |
| 20260905214521 | 75 | 45 | 0.9 | 2.6 | 0.00 | 0.00 | 0.00 | 74 | 1019.4 |
| 20260905214303 | 75 | 148 | 0.0 | 1.7 | 0.00 | 0.00 | 0.00 | 74 | 1018.7 |
| 20260905214018 | 75 | 45 | 0.0 | 2.6 | 0.00 | 0.00 | 0.00 | 75 | 1019.5 |
| 20260905213803 | 75 | 115 | 0.9 | 2.6 | 0.00 | 0.00 | 0.00 | 75 | 1018.7 |
| 20260905213521 | 76 | 135 | 0.9 | 1.7 | 0.00 | 0.00 | 0.00 | 76 | 1019.6 |
| 20260905213303 | 76 | 145 | 0.9 | 1.7 | 0.00 | 0.00 | 0.00 | 76 | 1018.7 |
| 20260905213050 | 85 | 0 | 0.9 | 0.9 | 0.00 | 0.00 | 0.00 | 100 | 1020.2 |
| 20260905213019 | 76 | 178 | 0.0 | 1.7 | 0.00 | 0.00 | 0.00 | 76 | 1019.6 |
| 20260905212803 | 76 | 118 | 0.9 | 1.7 | 0.00 | 0.00 | 0.00 | 75 | 1018.9 |
| 20260905212520 | 76 | 269 | 0.0 | 1.7 | 0.00 | 0.00 | 0.00 | 74 | 1019.6 |
| 20260905212306 | 76 | 142 | 0.0 | 1.7 | 0.00 | 0.00 | 0.00 | 73 | 1018.8 |
| 20260905212018 | 76 | 45 | 0.9 | 1.7 | 0.00 | 0.00 | 0.00 | 72 | 1019.6 |
| 20260905211803 | 76 | 62 | 0.0 | 1.7 | 0.00 | 0.00 | 0.00 | 72 | 1018.8 |
| 20260905211540 | 85 | 0 | 0.0 | 1.7 | 0.00 | 0.00 | 0.00 | 100 | 1020.2 |
| 20260905211524 | 76 | 178 | 0.9 | 1.7 | 0.00 | 0.00 | 0.00 | 73 | 1019.5 |
| 20260905211303 | 77 | 204 | 0.9 | 1.7 | 0.00 | 0.00 | 0.00 | 73 | 1018.8 |
| 20260905211018 | 77 | 223 | 0.9 | 0.9 | 0.00 | 0.00 | 0.00 | 73 | 1019.6 |
| 20260905210803 | 77 | 216 | 0.9 | 1.7 | 0.00 | 0.00 | 0.00 | 73 | 1018.7 |
| 20260905210521 | 77 | 269 | 0.9 | 1.7 | 0.00 | 0.00 | 0.00 | 73 | 1019.5 |
| 20260905210303 | 77 | 216 | 0.0 | 1.7 | 0.00 | 0.00 | 0.00 | 72 | 1018.8 |
| 20260905210042 | 85 | 0 | 0.9 | 1.7 | 0.00 | 0.00 | 0.00 | 100 | 1020.3 |
| 20260905210018 | 77 | 45 | 0.0 | 1.7 | 0.00 | 0.00 | 0.00 | 71 | 1019.6 |
| 20260905205804 | 77 | 72 | 0.0 | 1.7 | 0.00 | 0.00 | 0.00 | 71 | 1018.9 |
| 20260905205743 | 77 | 45 | 0.0 | 1.7 | 0.00 | 0.00 | 0.00 | 71 | 1019.6 |
| 20260905205018 | 77 | 1 | 0.9 | 1.7 | 0.00 | 0.00 | 0.00 | 70 | 1019.5 |
| 20260905204803 | 77 | 181 | 0.9 | 2.6 | 0.00 | 0.00 | 0.00 | 69 | 1018.8 |
| 20260905204739 | 77 | 145 | 0.0 | 1.7 | 0.00 | 0.00 | 0.00 | 70 | 1019.5 |
| 20260905204547 | 85 | 164 | 0.0 | 1.7 | 0.00 | 0.00 | 0.00 | 100 | 1020.2 |
| 20260905204505 | 77 | 135 | 0.0 | 1.7 | 0.00 | 0.00 | 0.00 | 72 | 1019.6 |
| 20260905204303 | 77 | 174 | 0.9 | 1.7 | 0.00 | 0.00 | 0.00 | 72 | 1018.8 |
| 20260905203803 | 78 | 163 | 0.0 | 1.7 | 0.00 | 0.00 | 0.00 | 72 | 1018.8 |
| 20260905203519 | 78 | 178 | 0.9 | 1.7 | 0.00 | 0.00 | 0.00 | 72 | 1019.6 |
| 20260905203303 | 78 | 196 | 0.9 | 1.7 | 0.00 | 0.00 | 0.00 | 72 | 1018.9 |
| 20260905203042 | 85 | 51 | 0.9 | 0.9 | 0.00 | 0.00 | 0.00 | 100 | 1020.3 |
| 20260905203018 | 78 | 223 | 0.9 | 1.7 | 0.00 | 0.00 | 0.00 | 73 | 1019.6 |
| 20260905202803 | 78 | 200 | 0.9 | 1.7 | 0.00 | 0.00 | 0.00 | 73 | 1018.8 |
| 20260905202520 | 78 | 269 | 0.9 | 2.6 | 0.00 | 0.00 | 0.00 | 73 | 1019.6 |
| 20260905202306 | 78 | 127 | 0.9 | 1.7 | 0.00 | 0.00 | 0.00 | 73 | 1018.8 |
| 20260905202241 | 78 | 45 | 0.9 | 2.6 | 0.00 | 0.00 | 0.00 | 72 | 1019.5 |
| 20260905201803 | 78 | 50 | 0.9 | 1.7 | 0.00 | 0.00 | 0.00 | 70 | 1018.8 |
| 20260905201544 | 85 | 64 | 0.0 | 1.7 | 0.00 | 0.00 | 0.00 | 100 | 1020.2 |
| 20260905201518 | 78 | 51 | 0.0 | 1.7 | 0.00 | 0.00 | 0.00 | 69 | 1019.5 |
| 20260905201304 | 78 | 173 | 0.9 | 1.7 | 0.00 | 0.00 | 0.00 | 69 | 1018.8 |
| 20260905201017 | 78 | 161 | 0.9 | 1.7 | 0.00 | 0.00 | 0.00 | 68 | 1019.5 |
| 20260905200803 | 79 | 182 | 0.9 | 1.7 | 0.00 | 0.00 | 0.00 | 70 | 1018.6 |
| 20260905200524 | 79 | 135 | 0.0 | 0.9 | 0.00 | 0.00 | 0.00 | 71 | 1019.5 |
| 20260905200304 | 79 | 97 | 0.9 | 0.9 | 0.00 | 0.00 | 0.00 | 70 | 1018.6 |
| 20260905200048 | 85 | 0 | 0.0 | 0.9 | 0.00 | 0.00 | 0.00 | 100 | 1020.0 |
| 20260905200017 | 79 | 178 | 0.9 | 0.9 | 0.00 | 0.00 | 0.00 | 68 | 1019.3 |
| 20260905195519 | 79 | 89 | 0.9 | 1.7 | 0.00 | 0.00 | 0.00 | 62 | 1019.2 |
| 20260905195242 | 79 | 269 | 0.9 | 1.7 | 0.00 | 0.00 | 0.00 | 60 | 1019.2 |
| 20260905194742 | 79 | 135 | 0.9 | 1.7 | 0.00 | 0.00 | 0.00 | 56 | 1019.2 |
| 20260905194546 | 85 | 158 | 0.0 | 0.9 | 0.00 | 0.00 | 0.00 | 100 | 1019.9 |
| 20260905194304 | 79 | 67 | 0.9 | 1.7 | 0.00 | 0.00 | 0.00 | 61 | 1018.4 |
| 20260905194016 | 79 | 178 | 0.0 | 0.9 | 0.00 | 0.00 | 0.00 | 66 | 1019.2 |
| 20260905193803 | 78 | 305 | 0.0 | 0.9 | 0.00 | 0.00 | 0.00 | 63 | 1018.5 |
| 20260905193745 | 78 | 178 | 0.9 | 2.6 | 0.00 | 0.00 | 0.00 | 65 | 1019.3 |
| 20260905193303 | 79 | 175 | 0.9 | 1.7 | 0.00 | 0.00 | 0.00 | 65 | 1018.4 |
| 20260905193042 | 85 | 0 | 0.0 | 1.7 | 0.00 | 0.00 | 0.00 | 100 | 1019.9 |
| 20260905193018 | 79 | 178 | 0.9 | 2.6 | 0.00 | 0.00 | 0.00 | 67 | 1019.3 |
| 20260905192803 | 79 | 164 | 0.9 | 2.6 | 0.00 | 0.00 | 0.00 | 68 | 1018.5 |
| 20260905192518 | 79 | 142 | 1.7 | 1.7 | 0.00 | 0.00 | 0.00 | 71 | 1019.3 |
| 20260905192306 | 79 | 158 | 0.9 | 2.6 | 0.00 | 0.00 | 0.00 | 72 | 1018.4 |
| 20260905192017 | 79 | 145 | 0.9 | 1.7 | 0.00 | 0.00 | 0.00 | 71 | 1019.2 |
| 20260905191546 | 85 | 68 | 0.9 | 1.7 | 0.00 | 0.00 | 0.00 | 100 | 1019.7 |
| 20260905191518 | 80 | 72 | 1.7 | 1.7 | 0.00 | 0.00 | 0.00 | 70 | 1019.0 |
| 20260905191303 | 81 | 72 | 0.9 | 1.7 | 0.00 | 0.00 | 0.00 | 68 | 1017.8 |
| 20260905191016 | 81 | 68 | 1.7 | 1.7 | 0.00 | 0.00 | 0.00 | 64 | 1018.7 |
| 20260905190518 | 82 | 331 | 0.0 | 1.7 | 0.00 | 0.00 | 0.00 | 64 | 1018.6 |
| 20260905190303 | 82 | 153 | 0.0 | 1.7 | 0.00 | 0.00 | 0.00 | 63 | 1017.4 |
| 20260905190058 | 85 | 178 | 0.0 | 0.9 | 0.00 | 0.00 | 0.00 | 100 | 1019.0 |
| 20260905190016 | 82 | 1 | 0.0 | 1.7 | 0.00 | 0.00 | 0.00 | 64 | 1018.4 |
| 20260905185803 | 82 | 181 | 0.0 | 0.9 | 0.00 | 0.00 | 0.00 | 64 | 1017.3 |